Location: ????????
(55.7969°N, 38.8840°E)
Time: 14:52:18
(UTC+00:00)

Daily predictions for brighter satellites

Satellite Brightness Start Highest point End
(mag) Time Altitude Azimuth Time Altitude Azimuth Time Altitude Azimuth
Cosmos 2315 Rocket 4.2 19:03:14 10° NNW 19:09:38 80° W 19:16:00 10° S
Cosmos 2333 4.3 19:05:43 10° NW 19:11:31 88° SW 19:17:19 10° SSE
BREEZE-M DEB (TANK) 4.4 19:10:06 10° SW 19:14:37 46° SSE 19:31:04 10° E
Cosmos 1758 3.9 19:17:19 10° NNW 19:21:07 52° W 19:24:56 10° S
Genesis I 4.1 19:17:46 10° WSW 19:21:13 49° NNW 19:24:44 10° NE
Cosmos 1741 Rocket 4.2 19:17:26 10° S 19:22:35 56° ESE 19:27:47 10° NNE
ALOS 2 4.3 19:19:19 10° ESE 19:22:52 25° ENE 19:26:26 10° N
Cosmos 1242 Rocket 4.2 19:21:45 10° ESE 19:22:54 12° E 19:24:03 10° ENE
Cosmos 2322 Rocket 2.9 19:19:18 10° NW 19:24:44 48° WSW 19:30:10 10° S
COSMOS 2406 4.1 19:20:01 10° SW 19:25:39 55° NW 19:31:20 10° NNE
Cosmos 968 Rocket 3.9 19:21:12 10° S 19:26:05 46° ESE 19:31:03 10° NE
Cosmos 1814 Rocket 4.1 19:21:20 10° NNW 19:26:38 80° WSW 19:31:58 10° SSE
NOSS 5 (C) 4.5 19:30:14 10° NW 19:33:34 69° NNE 19:36:43 10° ESE
USA 234 3.3 19:27:14 10° ENE 19:33:46 67° SSE 19:40:17 10° SW
Cosmos 1356 Rocket 3.5 19:31:51 10° SSW 19:36:04 89° WNW 19:40:18 10° NNE
Kosmos-1783 4.1 19:33:56 10° WNW 19:37:04 66° SW 19:43:23 10° SE
Meteor 1-21 4.3 19:32:29 10° S 19:38:17 81° ESE 19:44:08 10° NNE
Cosmos 1862 Rocket 3.6 19:35:28 10° S 19:39:52 86° ESE 19:44:20 10° NNE
COSMOS 2428 3.0 19:40:02 10° NNW 19:45:44 70° NE 19:51:26 10° SE
Okean 2 3.6 19:43:41 10° S 19:47:34 53° E 19:51:30 10° NNE
Cosmos 2219 Rocket 2.4 19:46:42 10° NW 19:52:20 65° WSW 19:57:45 11° SSE
Cosmos 1455 1.9 19:49:06 10° NNW 19:52:37 90° ESE 19:55:51 12° S
Cosmos 1400 Rocket 4.2 19:50:06 10° SW 19:53:43 36° WNW 19:57:18 10° N
SL-4 R/B 2.2 19:51:09 10° WSW 19:54:56 46° S 19:58:58 10° ESE
Landsat 5 3.9 19:52:11 10° N 19:56:05 60° WNW 20:00:06 10° SSW
Cosmos 1707 Rocket 4.2 19:56:23 10° SSW 20:00:46 55° WNW 20:05:10 10° N
Orbus 7S? 2.9 19:58:06 10° W 20:01:43 74° N 20:04:23 10° E
ATLAS CENTAUR R/B 1.0 20:02:36 10° SSW 20:06:03 58° SE 20:09:40 10° NE
ARIANE 5 R/B 2.8 20:01:59 11° S 20:06:04 69° WSW 20:10:24 10° NNW
Cosmos 1745 Rocket 4.5 20:00:45 11° SSE 20:06:38 51° E 20:12:46 10° NNE
SJ 16-02 1.3 20:03:29 10° SSW 20:07:47 73° ESE 20:12:08 10° NNE
Cosmos 1315 Rocket 2.8 20:04:44 10° S 20:08:42 80° ESE 20:12:44 10° NNE
Cosmos 1953 2.6 20:05:05 10° NNW 20:08:52 57° W 20:12:24 11° S
Okean 3 3.9 20:06:30 10° SSW 20:10:36 61° WNW 20:14:45 10° N
Nadezhda 1 Rocket 4.1 20:04:42 10° N 20:11:06 84° E 20:16:57 12° SSE
Meteor 1-4 Rocket 2.4 20:09:58 10° SSW 20:12:55 64° WNW 20:15:55 10° N
SL-27 R/B 2.6 20:11:35 10° SW 20:14:18 53° WNW 20:17:05 10° NNE
Aureole 3 4.2 20:10:34 10° SSW 20:14:31 58° WNW 20:19:31 10° N
Cosmos 2360 Rocket 3.6 20:10:48 10° NW 20:15:34 28° WSW 20:20:20 10° SSW
ATLAS 2AS CENTAUR R/B 3.7 20:12:36 10° WNW 20:18:34 33° WSW 20:24:07 11° S
GP-B 3.2 20:18:33 10° N 20:22:59 76° W 20:27:09 11° S
SL-16 R/B 4.4 20:21:09 10° WNW 20:23:55 14° W 20:26:40 10° SW
Cosmos 2333 Rocket 3.6 20:19:12 10° NW 20:23:58 27° WSW 20:28:43 10° SSW
H-2A R/B 2.6 20:23:15 13° S 20:27:01 71° WSW 20:31:17 10° NNW
Cosmos 1908 Rocket 4.3 20:25:54 10° NNW 20:30:04 44° W 20:34:00 11° SSW
Cosmos 1782 Rocket 3.6 20:28:23 10° NNW 20:32:43 72° W 20:36:24 14° S
SL-16 R/B 3.6 20:35:47 10° NNW 20:41:05 37° NE 20:46:21 10° ESE
Okean 1-7 3.8 20:37:26 10° SSW 20:41:39 50° WNW 20:45:53 10° N
Cosmos 1825 4.4 20:41:13 10° ESE 20:42:45 13° E 20:44:17 10° ENE
Cosmos 1833 4.4 20:37:30 10° SW 20:43:09 76° NW 20:48:48 10° NNE
USA 129 2.6 20:44:38 10° NE 20:45:39 17° ENE 20:45:39 17° ENE
USA 281 4.1 20:42:02 11° S 20:47:48 37° WSW 20:53:52 10° NW
Cosmos 2322 4.3 20:44:16 10° NW 20:49:40 44° WSW 20:54:15 14° S
Cosmos 2237 Rocket 2.3 20:44:00 10° NNW 20:49:44 82° NE 20:55:24 10° SE
Cosmos 2151 Rocket 4.3 20:46:45 10° N 20:51:02 46° ENE 20:55:00 11° SE
BlueWalker 3 3.4 20:50:10 16° SSE 20:51:19 18° SE 20:53:55 10° E
MINOTAUR 4 R/B 4.4 20:48:36 10° N 20:51:26 45° WNW 20:54:11 10° SW
Cosmos 405 Rocket 3.1 20:48:49 10° N 20:52:31 55° ENE 20:55:40 14° SSE
Meteor 1-24 Rocket 4.3 20:47:52 13° SSE 20:52:43 48° E 20:58:06 10° NNE
Cosmos 1408 2.0 20:50:38 17° S 20:52:44 71° E 20:55:44 10° NNE
Cosmos 1300 Rocket 3.9 20:49:12 10° NNW 20:53:26 55° W 20:56:57 14° S
Cosmos 1242 Rocket 2.7 20:52:09 12° SW 20:54:35 45° WNW 20:57:16 10° N
H-2A R/B 3.3 20:51:40 10° NNE 20:55:28 29° E 20:58:34 13° SSE
EXPRESS MD2 3.8 20:56:08 10° SW 20:56:56 15° SW 20:56:56 15° SW
Okean 2 Rocket 3.7 20:53:47 10° N 20:58:09 50° ENE 21:02:11 12° SSE
ALOS 2 2.9 20:55:20 15° S 20:58:55 60° WSW 21:03:17 10° NNW
CZ-4C R/B 3.1 20:57:21 15° SSE 21:00:26 28° ESE 21:05:11 10° ENE
Cosmos 2227 Rocket 3.9 20:56:53 10° SE 21:00:45 19° E 21:04:38 10° ENE
Cosmos 1980 3.7 20:56:52 10° NW 21:02:35 82° WSW 21:07:57 12° SSE
Cosmos 371 Rocket 3.9 20:59:56 15° S 21:03:37 43° ESE 21:08:12 10° NE
Cosmos 1709 Rocket 4.1 21:00:29 13° S 21:06:17 85° E 21:12:41 10° NNE
NOSS 0 Rocket 4.2 21:03:26 10° NW 21:09:30 55° WSW 21:14:47 14° S
Cosmos 1703 3.1 21:10:09 16° S 21:12:58 74° E 21:16:40 10° NNE
Cosmos 1674 Rocket 4.5 21:12:35 14° SSE 21:16:00 38° E 21:20:02 10° NNE
USA 234 3.4 21:10:25 10° E 21:17:00 83° N 21:23:33 10° W
Cosmos 1378 Rocket 4.2 21:14:45 15° SSE 21:18:08 46° E 21:22:21 10° NNE
Sich 1 Rocket 3.7 21:15:46 10° N 21:20:12 75° ENE 21:23:55 14° SSE
Meteor 2-5 Rocket 3.9 21:15:20 14° S 21:20:27 73° E 21:26:17 10° NNE
Cosmos 2297 Rocket 2.8 21:16:08 14° S 21:20:32 42° ESE 21:25:50 10° NE
Cosmos 2242 Rocket 3.9 21:20:05 13° SSW 21:24:06 70° WNW 21:28:41 10° N
Cosmos 773 Rocket 4.3 21:21:21 10° NW 21:26:20 52° WSW 21:30:29 15° S
BREEZE-M DEB (TANK) 3.5 21:18:12 10° W 21:27:22 41° SSW 21:30:34 10° SE
COSMOS 2428 3.8 21:24:44 10° NW 21:29:36 30° WSW 21:33:47 13° SSW
CENTAUR R/B 4.0 21:25:39 11° SSE 21:29:42 21° ESE 21:34:39 10° ENE
SL-4 R/B 2.9 21:29:43 10° W 21:33:16 29° SSW 21:36:58 10° SE
Cosmos 2098 Rocket 4.3 21:27:41 10° NNW 21:34:09 66° W 21:39:49 14° S
COSMOS 2455 3.0 21:29:10 12° SSW 21:34:41 61° SE 21:40:39 10° NE
Cosmos 2219 Rocket 4.2 21:32:15 10° WNW 21:35:15 15° W 21:38:15 10° SW
Cosmos 1892 3.1 21:32:49 16° SSE 21:35:22 46° E 21:38:46 10° NNE
Cosmos 1538 Rocket 4.3 21:31:40 10° NNW 21:36:51 66° ENE 21:42:03 10° SE
Cosmos 1503 Rocket 4.2 21:35:27 14° SSW 21:39:57 65° ESE 21:45:14 10° NNE
NOSS 8 (F) 4.3 21:37:17 12° SW 21:40:30 60° SE 21:43:27 10° ENE
Cosmos 1777 Rocket 4.3 21:38:28 15° S 21:42:50 59° ESE 21:48:02 10° NNE
ATLAS CENTAUR R/B 2.8 21:40:37 10° W 21:43:55 34° NNW 21:47:21 10° NE
GENESIS II 4.0 21:41:34 10° SW 21:45:14 86° NW 21:48:54 10° NE
SJ 16-02 3.5 21:43:09 10° W 21:46:37 23° NW 21:50:07 10° N
PSLV R/B 3.8 21:47:34 10° N 21:51:50 65° WNW 21:55:30 13° SSW
Cosmos 332 Rocket 4.3 21:52:44 14° S 21:56:39 49° ESE 22:01:23 10° NE
Cosmos 2263 Rocket 3.9 21:52:49 10° SSE 21:56:45 20° ESE 22:00:42 10° NE
Cosmos 304 Rocket 3.8 21:52:46 13° SSW 21:57:03 88° NW 22:01:51 10° NNE
Cosmos 2181 Rocket 4.4 21:53:27 10° NNW 21:59:29 53° W 22:04:45 13° SSW
Resurs 1-4 Rocket 4.4 21:57:01 10° NE 22:00:05 15° E 22:03:08 10° ESE
Okean 1 Rocket 3.1 21:58:01 10° NNW 22:02:20 69° W 22:06:00 14° S
Cosmos 1486 Rocket 4.4 22:01:54 10° SW 22:07:03 61° WNW 22:12:14 10° NNE
Helios 1A Rocket 2.8 22:11:17 10° SSE 22:15:03 77° ENE 22:18:52 10° NNW
Cosmos 1825 2.0 22:13:44 15° SSW 22:16:26 70° WNW 22:19:52 10° N
Cosmos 2074 Rocket 4.1 22:14:24 13° SSW 22:20:03 81° WNW 22:26:19 10° N
Cosmos 1354 Rocket 4.1 22:15:41 12° SSW 22:20:38 86° WNW 22:25:59 10° NNE
Cosmos 1606 3.8 22:18:56 10° N 22:22:18 37° ENE 22:25:39 10° SE
SL-16 R/B 2.3 22:19:56 10° NW 22:25:36 67° WSW 22:31:14 10° SSE
BREEZE-M DEB (TANK) 2.5 22:25:40 10° WSW 22:27:19 19° SSW 22:27:46 17° S
Cosmos 2228 4.5 22:24:22 10° N 22:28:24 35° ENE 22:32:23 10° SE
BlueWalker 3 2.2 22:25:17 10° WSW 22:28:52 45° SSE 22:32:28 10° E
H-2A R/B 2.9 22:27:13 10° N 22:31:19 43° WNW 22:35:19 10° SW
Cosmos 1975 Rocket 3.7 22:28:30 10° SSE 22:32:37 49° E 22:36:53 10° NNE
Cosmos 2237 Rocket 3.5 22:28:44 10° NW 22:33:12 24° WSW 22:37:15 12° SSW
SL-19 R/B 3.9 22:36:33 10° NNE 22:39:45 60° ESE 22:42:13 14° S
Cosmos 1455 Rocket 3.2 22:36:35 10° NNW 22:41:00 65° W 22:45:15 11° S
Cosmos 1943 3.6 22:36:10 10° NNW 22:41:49 69° NE 22:47:25 10° SE
Cosmos 1818 3.6 22:37:32 10° NW 22:43:03 78° SW 22:48:31 10° SE
Cosmos 1328 4.0 22:39:39 13° SSW 22:43:04 60° WNW 22:46:56 10° N
Cosmos 2227 Rocket 2.3 22:38:36 11° SSW 22:44:00 82° ESE 22:49:43 10° NE
Cosmos 371 Rocket 4.4 22:39:30 10° WSW 22:44:01 39° NW 22:48:34 10° NNE
Orbus 7S? 2.8 22:42:15 10° WNW 22:44:51 46° SSW 22:48:05 10° SE
Meteor 1-21 Rocket 4.3 22:42:07 11° S 22:47:40 86° ESE 22:53:23 10° NNE
Cosmos 1680 Rocket 3.6 22:42:38 10° NNW 22:47:53 82° ENE 22:53:05 10° SSE
CZ-4C R/B 2.2 22:43:12 10° SW 22:48:06 81° NW 22:54:27 10° NE
Cosmos 1869 3.3 22:45:38 10° N 22:49:22 72° ENE 22:53:03 10° SSE
Cosmos 2112 Rocket 4.2 22:44:16 10° NNW 22:49:29 74° ENE 22:54:40 10° SE
Nadezhda 3 Rocket 4.5 22:44:03 10° NNW 22:50:03 48° W 22:55:52 10° SSW
NOSS 3-3 (A) 4.5 22:45:46 10° NW 22:52:53 76° SW 23:01:18 10° SE
MOZ.5/SAFIR/RUBIN 5/SL-8 3.8 22:49:44 10° S 22:54:23 73° WSW 22:59:02 10° NNW
CZ-2C R/B 3.0 22:49:58 10° SSE 22:55:14 70° ENE 23:00:39 10° NNW
Cosmos 2084 Rocket 3.4 22:52:02 10° SW 22:56:16 72° SE 23:00:21 10° NE
CZ-2D R/B 3.3 22:51:59 10° NNE 22:56:56 36° E 23:01:47 10° SSE
IDEFIX/ARIANE 42P 3.3 22:52:23 10° NNE 22:57:29 47° E 23:02:31 10° S
Cosmos 2218 Rocket 4.4 22:53:35 10° S 22:59:41 59° E 23:05:46 10° NNE
USA 234 3.4 22:53:27 10° E 23:00:03 88° NNE 23:06:38 10° WNW
GEOS 3 Rocket 3.7 22:54:50 10° NE 23:00:04 82° NW 23:05:12 10° SW
Cosmos 2297 Rocket 2.9 22:59:01 10° WSW 23:04:32 52° NW 23:10:05 10° NNE
Cosmos 2219 3.3 22:59:15 10° SSW 23:04:45 71° ESE 23:10:22 10° NE
Cosmos 1025 Rocket 3.5 23:01:49 10° SSW 23:05:58 50° WNW 23:10:12 10° N
Cosmos 2366 rocket 4.3 23:02:16 10° S 23:08:31 70° E 23:14:43 10° NNE
Cosmos 1892 4.5 23:07:35 10° WSW 23:10:13 20° WNW 23:12:53 10° NNW
NPP 4.2 23:04:55 10° NNE 23:10:15 57° E 23:15:33 10° S
Cosmos 1607 4.4 23:03:59 10° NW 23:10:29 72° NE 23:16:50 10° ESE
SL-4 R/B 4.1 23:10:17 10° SW 23:11:08 10° SW 23:11:57 10° SSW
Meteor 2-1 Rocket 4.5 23:05:39 10° NNW 23:11:31 62° W 23:17:16 10° S
NOSS 3 (A) 3.6 23:12:25 11° WSW 23:13:54 53° NW 23:15:35 10° NE
Cosmos 990 Rocket 4.1 23:08:47 10° SW 23:13:55 72° WNW 23:19:05 10° NNE
CENTAUR R/B 2.7 23:13:03 10° SW 23:19:02 74° SE 23:26:31 10° NE
ALOS 4.3 23:16:38 10° NE 23:20:19 23° E 23:23:59 10° SE
COSMOS 2455 3.8 23:15:04 10° WSW 23:20:53 47° NNW 23:26:45 10° NE
Aureole 1 Rocket 2.9 23:18:46 10° SSW 23:22:25 88° WNW 23:27:06 10° NNE
ATLAS CENTAUR R/B 3.9 23:19:35 10° NW 23:22:28 21° N 23:25:26 10° NE
SL-16 R/B 3.0 23:18:12 10° SSE 23:24:23 68° ENE 23:30:35 10° NNW
ADEOS II 3.0 23:25:43 10° NNE 23:30:45 44° E 23:35:46 10° S
COBE Rocket 4.1 23:28:16 10° N 23:33:24 74° WNW 23:38:33 10° SSW
Cosmos 292 Rocket 3.9 23:29:30 10° SSW 23:34:18 77° WNW 23:39:09 10° NNE
Meteor 1-27 4.4 23:31:54 10° NNW 23:37:47 82° WSW 23:43:35 10° S
Cosmos 2263 Rocket 2.2 23:34:21 10° SSW 23:39:56 86° ESE 23:45:33 10° NE
Resurs 1-4 Rocket 2.3 23:35:30 10° NNE 23:40:48 75° ESE 23:46:05 10° S
MSX 4.0 23:35:03 10° NNE 23:40:50 82° ESE 23:46:35 10° SSW
SL-8 Rocket 4.1 23:34:42 10° SSW 23:40:51 70° WNW 23:47:05 10° N
